TimeAKST,TemperatureF,Dew PointF,Humidity,Sea Level PressureIn,VisibilityMPH,Wind Direction,Wind SpeedMPH,Gust SpeedMPH,PrecipitationIn,Events,Conditions,WindDirDegrees,DateUTC
12:53 AM,-23.1,-29.9,70,30.06,10.0,Calm,Calm,-,N/A,,Clear,0,2013-02-26 09:53:00
1:53 AM,-23.1,-29.9,70,30.04,10.0,Calm,Calm,-,N/A,,Clear,0,2013-02-26 10:53:00
3:53 AM,-22.0,-27.9,74,30.04,10.0,Calm,Calm,-,N/A,,Clear,0,2013-02-26 12:53:00
4:53 AM,-25.1,-31.0,74,30.03,10.0,Calm,Calm,-,N/A,,Clear,0,2013-02-26 13:53:00
5:53 AM,-23.1,-29.0,74,30.02,10.0,Calm,Calm,-,N/A,,Scattered Clouds,0,2013-02-26 14:53:00
6:53 AM,-23.1,-29.9,70,29.99,10.0,Calm,Calm,-,N/A,,Mostly Cloudy,0,2013-02-26 15:53:00
7:53 AM,-18.9,-26.0,70,29.97,10.0,Calm,Calm,-,N/A,,Mostly Cloudy,0,2013-02-26 16:53:00
8:53 AM,-18.9,-27.0,66,29.97,10.0,Calm,Calm,-,N/A,,Mostly Cloudy,0,2013-02-26 17:53:00
9:53 AM,-20.0,-27.0,70,29.95,10.0,Calm,Calm,-,N/A,,Mostly Cloudy,0,2013-02-26 18:53:00
10:53 AM,-18.9,-27.0,66,29.94,10.0,NW,3.5,-,N/A,,Scattered Clouds,320,2013-02-26 19:53:00
11:53 AM,-13.0,-23.1,61,29.92,10.0,WNW,10.4,-,N/A,,Scattered Clouds,300,2013-02-26 20:53:00
12:53 PM,-11.9,-20.9,64,29.88,10.0,SW,3.5,-,N/A,,Scattered Clouds,220,2013-02-26 21:53:00
1:53 PM,-9.9,-18.0,68,29.86,10.0,Calm,Calm,-,N/A,,Mostly Cloudy,0,2013-02-26 22:53:00
2:53 PM,-7.1,-17.0,62,29.83,10.0,Calm,Calm,-,N/A,,Mostly Cloudy,0,2013-02-26 23:53:00
3:53 PM,-4.0,-13.0,65,29.80,10.0,Calm,Calm,-,N/A,,Mostly Cloudy,0,2013-02-27 00:53:00
4:53 PM,-0.9,-13.0,57,29.78,10.0,Calm,Calm,-,N/A,,Mostly Cloudy,0,2013-02-27 01:53:00
5:53 PM,-4.0,-14.1,62,29.73,10.0,Calm,Calm,-,N/A,,Mostly Cloudy,0,2013-02-27 02:53:00
6:53 PM,-6.0,-13.0,72,29.70,10.0,South,4.6,-,N/A,,Mostly Cloudy,180,2013-02-27 03:53:00
7:53 PM,-5.1,-11.9,72,29.68,10.0,Variable,5.8,-,N/A,,Mostly Cloudy,0,2013-02-27 04:53:00
8:53 PM,5.0,-6.0,61,29.67,10.0,SW,8.1,-,N/A,,Mostly Cloudy,230,2013-02-27 05:53:00
9:53 PM,19.0,-9.0,29,29.65,10.0,NW,4.6,16.1,N/A,,Mostly Cloudy,310,2013-02-27 06:53:00
10:53 PM,18.0,-6.0,35,29.62,10.0,NE,16.1,-,N/A,,Mostly Cloudy,40,2013-02-27 07:53:00
11:53 PM,17.1,-2.0,43,29.61,10.0,NE,16.1,-,N/A,,Mostly Cloudy,50,2013-02-27 08:53:00